Year,Month,Day,Hour,Minute,Value (Times are PST for windspeed in km/hr)
2021,11,11,00,00,6.70
2021,11,11,00,01,7.70
2021,11,11,00,02,8.00
2021,11,11,00,03,8.50
2021,11,11,00,04,8.10
2021,11,11,00,05,10.20
2021,11,11,00,06,8.20
2021,11,11,00,07,9.50
2021,11,11,00,08,7.20
2021,11,11,00,09,6.40
2021,11,11,00,10,8.50
2021,11,11,00,11,8.00
2021,11,11,00,12,5.20
2021,11,11,00,13,5.50
2021,11,11,00,14,3.30
2021,11,11,00,15,4.30
2021,11,11,00,16,7.70
2021,11,11,00,17,1.70
2021,11,11,00,18,0.00
2021,11,11,00,19,0.00
2021,11,11,00,20,0.00
2021,11,11,00,21,1.50
2021,11,11,00,22,1.60
2021,11,11,00,23,2.00
2021,11,11,00,24,1.90
2021,11,11,00,25,4.60
2021,11,11,00,26,10.00
2021,11,11,00,27,8.50
2021,11,11,00,28,8.40
2021,11,11,00,29,10.00
2021,11,11,00,30,5.00
2021,11,11,00,31,9.20
2021,11,11,00,32,9.30
2021,11,11,00,33,8.10
2021,11,11,00,34,9.60
2021,11,11,00,35,8.70
2021,11,11,00,36,8.30
2021,11,11,00,37,9.00
2021,11,11,00,38,10.60
2021,11,11,00,39,9.20
2021,11,11,00,40,9.80
2021,11,11,00,41,7.60
2021,11,11,00,42,7.40
2021,11,11,00,43,6.90
2021,11,11,00,44,8.90
2021,11,11,00,45,9.20
2021,11,11,00,46,6.50
2021,11,11,00,47,9.10
2021,11,11,00,48,9.00
2021,11,11,00,49,7.50
2021,11,11,00,50,8.50
2021,11,11,00,51,9.20
2021,11,11,00,52,9.30
2021,11,11,00,53,7.30
2021,11,11,00,54,4.40
2021,11,11,00,55,5.80
2021,11,11,00,56,7.00
2021,11,11,00,57,8.10
2021,11,11,00,58,3.70
2021,11,11,00,59,1.60
2021,11,11,01,00,1.80
2021,11,11,01,01,4.00
2021,11,11,01,02,3.60
2021,11,11,01,03,2.80
2021,11,11,01,04,2.30
2021,11,11,01,05,4.50
2021,11,11,01,06,3.00
2021,11,11,01,07,0.50
2021,11,11,01,08,4.10
2021,11,11,01,09,5.80
2021,11,11,01,10,4.50
2021,11,11,01,11,3.00
2021,11,11,01,12,1.50
2021,11,11,01,13,3.80
2021,11,11,01,14,4.90
2021,11,11,01,15,8.40
2021,11,11,01,16,6.60
2021,11,11,01,17,6.90
2021,11,11,01,18,8.60
2021,11,11,01,19,9.60
2021,11,11,01,20,8.90
2021,11,11,01,21,7.30
2021,11,11,01,22,7.60
2021,11,11,01,23,7.60
2021,11,11,01,24,9.20
2021,11,11,01,25,9.00
2021,11,11,01,26,8.90
2021,11,11,01,27,10.20
2021,11,11,01,28,6.80
2021,11,11,01,29,7.40
2021,11,11,01,30,9.50
2021,11,11,01,31,5.80
2021,11,11,01,32,8.10
2021,11,11,01,33,7.00
2021,11,11,01,34,8.80
2021,11,11,01,35,10.30
2021,11,11,01,36,9.40
2021,11,11,01,37,9.10
2021,11,11,01,38,8.40
2021,11,11,01,39,10.70
2021,11,11,01,40,8.50
2021,11,11,01,41,11.10
2021,11,11,01,42,10.40
2021,11,11,01,43,9.00
2021,11,11,01,44,7.40
2021,11,11,01,45,10.80
2021,11,11,01,46,9.10
2021,11,11,01,47,10.00
2021,11,11,01,48,10.00
2021,11,11,01,49,10.10
2021,11,11,01,50,10.30
2021,11,11,01,51,9.20
2021,11,11,01,52,8.70
2021,11,11,01,53,10.80
2021,11,11,01,54,9.20
2021,11,11,01,55,10.20
2021,11,11,01,56,8.40
2021,11,11,01,57,6.60
2021,11,11,01,58,7.30
2021,11,11,01,59,8.90
2021,11,11,02,00,8.50
2021,11,11,02,01,8.10
2021,11,11,02,02,8.00
2021,11,11,02,03,8.40
2021,11,11,02,04,10.60
2021,11,11,02,05,5.00
2021,11,11,02,06,7.90
2021,11,11,02,07,9.50
2021,11,11,02,08,9.10
2021,11,11,02,09,8.80
2021,11,11,02,10,7.40
2021,11,11,02,11,10.60
2021,11,11,02,12,12.60
2021,11,11,02,13,9.00
2021,11,11,02,14,8.10
2021,11,11,02,15,7.60
2021,11,11,02,16,5.50
2021,11,11,02,17,6.80
2021,11,11,02,18,8.90
2021,11,11,02,19,7.30
2021,11,11,02,20,8.90
2021,11,11,02,21,7.90
2021,11,11,02,22,9.80
2021,11,11,02,23,8.60
2021,11,11,02,24,7.90
2021,11,11,02,25,8.40
2021,11,11,02,26,6.90
2021,11,11,02,27,11.00
2021,11,11,02,28,8.60
2021,11,11,02,29,9.60
2021,11,11,02,30,5.50
2021,11,11,02,31,7.70
2021,11,11,02,32,9.00
2021,11,11,02,33,11.20
2021,11,11,02,34,9.10
2021,11,11,02,35,5.90
2021,11,11,02,36,9.30
2021,11,11,02,37,7.90
2021,11,11,02,38,10.70
2021,11,11,02,39,8.40
2021,11,11,02,40,8.70
2021,11,11,02,41,9.20
2021,11,11,02,42,8.30
2021,11,11,02,43,8.40
2021,11,11,02,44,12.00
2021,11,11,02,45,8.70
2021,11,11,02,46,9.40
2021,11,11,02,47,7.80
2021,11,11,02,48,9.50
2021,11,11,02,49,9.80
2021,11,11,02,50,7.40
2021,11,11,02,51,8.80
2021,11,11,02,52,8.60
2021,11,11,02,53,10.10
2021,11,11,02,54,10.80
2021,11,11,02,55,9.70
2021,11,11,02,56,10.00
2021,11,11,02,57,10.20
2021,11,11,02,58,9.30
2021,11,11,02,59,10.40
2021,11,11,03,00,8.70
2021,11,11,03,01,7.70
2021,11,11,03,02,7.90
2021,11,11,03,03,9.00
2021,11,11,03,04,1.60
2021,11,11,03,05,9.10
2021,11,11,03,06,8.50
2021,11,11,03,07,5.50
2021,11,11,03,08,5.40
2021,11,11,03,09,6.50
2021,11,11,03,10,8.80
2021,11,11,03,11,5.90
2021,11,11,03,12,7.70
2021,11,11,03,13,7.10
2021,11,11,03,14,11.50
2021,11,11,03,15,8.40
2021,11,11,03,16,8.90
2021,11,11,03,17,6.60
2021,11,11,03,18,9.20
2021,11,11,03,19,9.00
2021,11,11,03,20,7.80
2021,11,11,03,21,7.30
2021,11,11,03,22,9.60
2021,11,11,03,23,8.90
2021,11,11,03,24,5.10
2021,11,11,03,25,9.70
2021,11,11,03,26,9.00
2021,11,11,03,27,10.50
2021,11,11,03,28,6.20
2021,11,11,03,29,7.40
2021,11,11,03,30,7.70
2021,11,11,03,31,7.90
2021,11,11,03,32,9.80
2021,11,11,03,33,8.70
2021,11,11,03,34,7.20
2021,11,11,03,35,11.50
2021,11,11,03,36,9.50
2021,11,11,03,37,5.10
2021,11,11,03,38,9.50
2021,11,11,03,39,10.30
2021,11,11,03,40,8.50
2021,11,11,03,41,9.80
2021,11,11,03,42,7.70
2021,11,11,03,43,7.30
2021,11,11,03,44,8.40
2021,11,11,03,45,8.10
2021,11,11,03,46,10.30
2021,11,11,03,47,7.40
2021,11,11,03,48,5.20
2021,11,11,03,49,10.80
2021,11,11,03,50,10.10
2021,11,11,03,51,10.50
2021,11,11,03,52,8.90
2021,11,11,03,53,10.50
2021,11,11,03,54,7.50
2021,11,11,03,55,8.00
2021,11,11,03,56,11.90
2021,11,11,03,57,10.40
2021,11,11,03,58,9.70
2021,11,11,03,59,10.10
2021,11,11,04,00,10.40
2021,11,11,04,01,7.70
2021,11,11,04,02,8.70
2021,11,11,04,03,8.80
2021,11,11,04,04,9.50
2021,11,11,04,05,10.50
2021,11,11,04,06,11.90
2021,11,11,04,07,8.90
2021,11,11,04,08,8.60
2021,11,11,04,09,8.60
2021,11,11,04,10,9.40
2021,11,11,04,11,8.40
2021,11,11,04,12,7.90
2021,11,11,04,13,4.70
2021,11,11,04,14,10.60
2021,11,11,04,15,8.80
2021,11,11,04,16,9.80
2021,11,11,04,17,10.70
2021,11,11,04,18,11.80
2021,11,11,04,19,10.10
2021,11,11,04,20,8.10
2021,11,11,04,21,5.30
2021,11,11,04,22,8.10
2021,11,11,04,23,10.00
2021,11,11,04,24,8.50
2021,11,11,04,25,8.30
2021,11,11,04,26,10.40
2021,11,11,04,27,7.60
2021,11,11,04,28,7.20
2021,11,11,04,29,8.60
2021,11,11,04,30,8.70
2021,11,11,04,31,7.80
2021,11,11,04,32,7.60
2021,11,11,04,33,7.40
2021,11,11,04,34,7.80
2021,11,11,04,35,9.70
2021,11,11,04,36,8.40
2021,11,11,04,37,4.60
2021,11,11,04,38,7.00
2021,11,11,04,39,8.20
2021,11,11,04,40,7.40
2021,11,11,04,41,7.50
2021,11,11,04,42,6.60
2021,11,11,04,43,9.60
2021,11,11,04,44,8.50
2021,11,11,04,45,8.20
2021,11,11,04,46,7.30
2021,11,11,04,47,6.10
2021,11,11,04,48,7.20
2021,11,11,04,49,8.20
2021,11,11,04,50,5.10
2021,11,11,04,51,6.60
2021,11,11,04,52,7.10
2021,11,11,04,53,6.20
2021,11,11,04,54,7.70
2021,11,11,04,55,6.50
2021,11,11,04,56,5.70
2021,11,11,04,57,5.00
2021,11,11,04,58,5.60
2021,11,11,04,59,5.30
2021,11,11,05,00,6.50
2021,11,11,05,01,6.00
2021,11,11,05,02,7.20
2021,11,11,05,03,8.10
2021,11,11,05,04,7.10
2021,11,11,05,05,5.80
2021,11,11,05,06,2.30
2021,11,11,05,07,1.20
2021,11,11,05,08,1.50
2021,11,11,05,09,3.60
2021,11,11,05,10,4.30
2021,11,11,05,11,2.00
2021,11,11,05,12,0.20
2021,11,11,05,13,3.50
2021,11,11,05,14,1.10
2021,11,11,05,15,2.50
2021,11,11,05,16,3.00
2021,11,11,05,17,5.10
2021,11,11,05,18,7.00
2021,11,11,05,19,6.10
2021,11,11,05,20,4.20
2021,11,11,05,21,6.60
2021,11,11,05,22,4.90
2021,11,11,05,23,5.30
2021,11,11,05,24,6.80
2021,11,11,05,25,7.20
2021,11,11,05,26,3.40
2021,11,11,05,27,2.80
2021,11,11,05,28,4.50
2021,11,11,05,29,5.30
2021,11,11,05,30,4.10
2021,11,11,05,31,6.30
2021,11,11,05,32,5.10
2021,11,11,05,33,5.20
2021,11,11,05,34,4.20
2021,11,11,05,35,4.20
2021,11,11,05,36,5.40
2021,11,11,05,37,6.80
2021,11,11,05,38,3.70
2021,11,11,05,39,0.70
2021,11,11,05,40,1.00
2021,11,11,05,41,0.10
2021,11,11,05,42,0.00
2021,11,11,05,43,0.00
2021,11,11,05,44,0.00
2021,11,11,05,45,0.00
2021,11,11,05,46,0.00
2021,11,11,05,47,0.00
2021,11,11,05,48,0.00
2021,11,11,05,49,0.00
2021,11,11,05,50,0.00
2021,11,11,05,51,3.90
2021,11,11,05,52,4.50
2021,11,11,05,53,3.90
2021,11,11,05,54,4.30
2021,11,11,05,55,1.30
2021,11,11,05,56,1.30
2021,11,11,05,57,3.30
2021,11,11,05,58,2.50
2021,11,11,05,59,4.60
2021,11,11,06,00,1.10
2021,11,11,06,01,0.40
2021,11,11,06,02,4.20
2021,11,11,06,03,0.50
2021,11,11,06,04,4.60
2021,11,11,06,05,4.00
2021,11,11,06,06,4.60
2021,11,11,06,07,4.90
2021,11,11,06,08,5.00
2021,11,11,06,09,2.80
2021,11,11,06,10,2.30
2021,11,11,06,11,4.80
2021,11,11,06,12,1.70
2021,11,11,06,13,0.90
2021,11,11,06,14,1.50
2021,11,11,06,15,1.30
2021,11,11,06,16,6.10
2021,11,11,06,17,5.90
2021,11,11,06,18,6.90
2021,11,11,06,19,7.10
2021,11,11,06,20,6.30
2021,11,11,06,21,7.40
2021,11,11,06,22,7.60
2021,11,11,06,23,7.40
2021,11,11,06,24,6.10
2021,11,11,06,25,6.70
2021,11,11,06,26,5.70
2021,11,11,06,27,6.70
2021,11,11,06,28,4.10
2021,11,11,06,29,6.50
2021,11,11,06,30,6.30
2021,11,11,06,31,5.10
2021,11,11,06,32,4.50
2021,11,11,06,33,1.90
2021,11,11,06,34,2.80
2021,11,11,06,35,3.20
2021,11,11,06,36,4.60
2021,11,11,06,37,4.60
2021,11,11,06,38,4.90
2021,11,11,06,39,4.60
2021,11,11,06,40,5.90
2021,11,11,06,41,3.30
2021,11,11,06,42,5.70
2021,11,11,06,43,3.60
2021,11,11,06,44,6.80
2021,11,11,06,45,8.40
2021,11,11,06,46,8.20
2021,11,11,06,47,8.00
2021,11,11,06,48,5.50
2021,11,11,06,49,7.00
2021,11,11,06,50,5.60
2021,11,11,06,51,3.50
2021,11,11,06,52,5.70
2021,11,11,06,53,6.30
2021,11,11,06,54,6.80
2021,11,11,06,55,5.40
2021,11,11,06,56,7.10
2021,11,11,06,57,5.60
2021,11,11,06,58,4.20
2021,11,11,06,59,4.50
2021,11,11,07,00,3.30
2021,11,11,07,01,4.10
2021,11,11,07,02,5.10
2021,11,11,07,03,2.90
2021,11,11,07,04,3.10
2021,11,11,07,05,2.60
2021,11,11,07,06,6.20
2021,11,11,07,07,5.60
2021,11,11,07,08,4.80
2021,11,11,07,09,3.20
2021,11,11,07,10,1.80
2021,11,11,07,11,1.60
2021,11,11,07,12,3.00
2021,11,11,07,13,7.10
2021,11,11,07,14,5.70
2021,11,11,07,15,3.20
2021,11,11,07,16,3.50
2021,11,11,07,17,3.40
2021,11,11,07,18,3.30
2021,11,11,07,19,4.10
2021,11,11,07,20,6.90
2021,11,11,07,21,5.60
2021,11,11,07,22,4.90
2021,11,11,07,23,2.80
2021,11,11,07,24,0.20
2021,11,11,07,25,0.60
2021,11,11,07,26,1.40
2021,11,11,07,27,0.10
2021,11,11,07,28,2.70
2021,11,11,07,29,2.60
2021,11,11,07,30,1.80
2021,11,11,07,31,1.90
2021,11,11,07,32,1.50
2021,11,11,07,33,1.30
2021,11,11,07,34,3.00
2021,11,11,07,35,5.50
2021,11,11,07,36,2.30
2021,11,11,07,37,2.80
2021,11,11,07,38,6.00
2021,11,11,07,39,5.60
2021,11,11,07,40,5.80
2021,11,11,07,41,3.00
2021,11,11,07,42,7.10
2021,11,11,07,43,5.90
2021,11,11,07,44,4.40
2021,11,11,07,45,4.60
2021,11,11,07,46,7.60
2021,11,11,07,47,4.60
2021,11,11,07,48,4.10
2021,11,11,07,49,1.40
2021,11,11,07,50,2.80
2021,11,11,07,51,1.90
2021,11,11,07,52,5.90
2021,11,11,07,53,6.00
2021,11,11,07,54,7.70
2021,11,11,07,55,5.80
2021,11,11,07,56,3.70
2021,11,11,07,57,6.90
2021,11,11,07,58,7.90
2021,11,11,07,59,8.20
2021,11,11,08,00,8.10
2021,11,11,08,01,6.80
2021,11,11,08,02,4.50
2021,11,11,08,03,5.90
2021,11,11,08,04,6.30
2021,11,11,08,05,7.60
2021,11,11,08,06,8.20
2021,11,11,08,07,8.80
2021,11,11,08,08,7.00
2021,11,11,08,09,7.50
2021,11,11,08,10,2.40
2021,11,11,08,11,7.40
2021,11,11,08,12,5.60
2021,11,11,08,13,5.70
2021,11,11,08,14,5.50
2021,11,11,08,15,8.20
2021,11,11,08,16,7.80
2021,11,11,08,17,5.60
2021,11,11,08,18,8.30
2021,11,11,08,19,6.30
2021,11,11,08,20,5.80
2021,11,11,08,21,6.50
2021,11,11,08,22,5.90
2021,11,11,08,23,7.30
2021,11,11,08,24,8.80
2021,11,11,08,25,6.10
2021,11,11,08,26,4.70
2021,11,11,08,27,5.00
2021,11,11,08,28,3.50
2021,11,11,08,29,2.40
2021,11,11,08,30,6.30
2021,11,11,08,31,4.90
2021,11,11,08,32,6.30
2021,11,11,08,33,5.60
2021,11,11,08,34,5.20
2021,11,11,08,35,5.60
2021,11,11,08,36,6.40
2021,11,11,08,37,6.20
2021,11,11,08,38,7.80
2021,11,11,08,39,7.60
2021,11,11,08,40,2.50
2021,11,11,08,41,3.40
2021,11,11,08,42,5.60
2021,11,11,08,43,5.40
2021,11,11,08,44,6.60
2021,11,11,08,45,6.40
2021,11,11,08,46,6.40
2021,11,11,08,47,6.40
2021,11,11,08,48,9.20
2021,11,11,08,49,8.00
2021,11,11,08,50,8.40
2021,11,11,08,51,7.80
2021,11,11,08,52,4.80
2021,11,11,08,53,6.30
2021,11,11,08,54,7.90
2021,11,11,08,55,5.40
2021,11,11,08,56,7.00
2021,11,11,08,57,7.10
2021,11,11,08,58,9.00
2021,11,11,08,59,7.80
2021,11,11,09,00,6.60
2021,11,11,09,01,8.50
2021,11,11,09,02,8.60
2021,11,11,09,03,7.00
2021,11,11,09,04,7.10
2021,11,11,09,05,7.00
2021,11,11,09,06,8.10
2021,11,11,09,07,9.50
2021,11,11,09,08,7.90
2021,11,11,09,09,8.20
2021,11,11,09,10,9.60
2021,11,11,09,11,9.70
2021,11,11,09,12,8.90
2021,11,11,09,13,9.70
2021,11,11,09,14,6.90
2021,11,11,09,15,7.60
2021,11,11,09,16,9.50
2021,11,11,09,17,10.40
2021,11,11,09,18,6.30
2021,11,11,09,19,6.60
2021,11,11,09,20,5.50
2021,11,11,09,21,2.90
2021,11,11,09,22,1.40
2021,11,11,09,23,1.50
2021,11,11,09,24,0.00
2021,11,11,09,25,0.00
2021,11,11,09,26,2.90
2021,11,11,09,27,4.50
2021,11,11,09,28,5.70
2021,11,11,09,29,3.10
2021,11,11,09,30,4.40
2021,11,11,09,31,8.20
2021,11,11,09,32,7.60
2021,11,11,09,33,8.20
2021,11,11,09,34,11.00
2021,11,11,09,35,10.50
2021,11,11,09,36,7.90
2021,11,11,09,37,9.30
2021,11,11,09,38,8.30
2021,11,11,09,39,9.70
2021,11,11,09,40,9.20
2021,11,11,09,41,8.60
2021,11,11,09,42,13.00
2021,11,11,09,43,10.00
2021,11,11,09,44,9.10
2021,11,11,09,45,6.50
2021,11,11,09,46,7.70
2021,11,11,09,47,5.10
2021,11,11,09,48,6.30
2021,11,11,09,49,6.30
2021,11,11,09,50,6.30
2021,11,11,09,51,8.50
2021,11,11,09,52,7.40
2021,11,11,09,53,8.70
2021,11,11,09,54,8.10
2021,11,11,09,55,6.00
2021,11,11,09,56,7.50
2021,11,11,09,57,6.70
2021,11,11,09,58,6.60
2021,11,11,09,59,9.60
2021,11,11,10,00,7.10
2021,11,11,10,01,7.80
2021,11,11,10,02,7.10
2021,11,11,10,03,9.40
2021,11,11,10,04,9.20
2021,11,11,10,05,7.90
2021,11,11,10,06,5.60
2021,11,11,10,07,9.00
2021,11,11,10,08,7.20
2021,11,11,10,09,8.90
2021,11,11,10,10,6.50
2021,11,11,10,11,8.20
2021,11,11,10,12,6.10
2021,11,11,10,13,10.00
2021,11,11,10,14,9.70
2021,11,11,10,15,7.40
2021,11,11,10,16,7.80
2021,11,11,10,17,6.90
2021,11,11,10,18,6.40
2021,11,11,10,19,5.70
2021,11,11,10,20,5.80
2021,11,11,10,21,5.00
2021,11,11,10,22,6.40
2021,11,11,10,23,7.10
2021,11,11,10,24,7.10
2021,11,11,10,25,4.90
2021,11,11,10,26,4.40
2021,11,11,10,27,6.80
2021,11,11,10,28,6.20
2021,11,11,10,29,5.80
2021,11,11,10,30,10.00
2021,11,11,10,31,8.60
2021,11,11,10,32,9.70
2021,11,11,10,33,8.40
2021,11,11,10,34,8.70
2021,11,11,10,35,7.00
2021,11,11,10,36,3.30
2021,11,11,10,37,0.10
2021,11,11,10,38,7.10
2021,11,11,10,39,6.90
2021,11,11,10,40,2.80
2021,11,11,10,41,4.00
2021,11,11,10,42,6.70
2021,11,11,10,43,3.00
2021,11,11,10,44,7.20
2021,11,11,10,45,4.00
2021,11,11,10,46,6.80
2021,11,11,10,47,7.60
2021,11,11,10,48,7.50
2021,11,11,10,49,9.40
2021,11,11,10,50,6.90
2021,11,11,10,51,5.40
2021,11,11,10,52,6.80
2021,11,11,10,53,3.50
2021,11,11,10,54,0.50
2021,11,11,10,55,0.20
2021,11,11,10,56,2.30
2021,11,11,10,57,2.00
2021,11,11,10,58,2.80
2021,11,11,10,59,5.40
2021,11,11,11,00,5.80
2021,11,11,11,01,4.30
2021,11,11,11,02,7.80
2021,11,11,11,03,6.20
2021,11,11,11,04,7.60
2021,11,11,11,05,8.10
2021,11,11,11,06,8.50
2021,11,11,11,07,8.90
2021,11,11,11,08,8.40
2021,11,11,11,09,8.50
2021,11,11,11,10,8.50
2021,11,11,11,11,8.20
2021,11,11,11,12,8.40
2021,11,11,11,13,9.50
2021,11,11,11,14,6.70
2021,11,11,11,15,6.90
2021,11,11,11,16,7.80
2021,11,11,11,17,9.00
2021,11,11,11,18,10.00
2021,11,11,11,19,11.00
2021,11,11,11,20,9.60
2021,11,11,11,21,12.20
2021,11,11,11,22,10.00
2021,11,11,11,23,8.70
2021,11,11,11,24,7.60
2021,11,11,11,25,11.80
2021,11,11,11,26,13.00
2021,11,11,11,27,11.50
2021,11,11,11,28,9.20
2021,11,11,11,29,10.50
2021,11,11,11,30,10.90
2021,11,11,11,31,10.80
2021,11,11,11,32,8.70
2021,11,11,11,33,5.40
2021,11,11,11,34,8.70
2021,11,11,11,35,9.30
2021,11,11,11,36,9.80
2021,11,11,11,37,8.70
2021,11,11,11,38,8.10
2021,11,11,11,39,7.40
2021,11,11,11,40,4.40
2021,11,11,11,41,7.40
2021,11,11,11,42,10.20
2021,11,11,11,43,9.00
2021,11,11,11,44,11.50
2021,11,11,11,45,11.70
2021,11,11,11,46,12.30
2021,11,11,11,47,10.80
2021,11,11,11,48,13.70
2021,11,11,11,49,11.20
2021,11,11,11,50,8.40
2021,11,11,11,51,8.30
2021,11,11,11,52,9.30
2021,11,11,11,53,7.40
2021,11,11,11,54,9.00
2021,11,11,11,55,12.20
2021,11,11,11,56,10.60
2021,11,11,11,57,9.90
2021,11,11,11,58,13.10
2021,11,11,11,59,11.80
2021,11,11,12,00,13.40
2021,11,11,12,01,9.90
2021,11,11,12,02,11.80
2021,11,11,12,03,10.40
2021,11,11,12,04,12.50
2021,11,11,12,05,14.40
2021,11,11,12,06,10.60
2021,11,11,12,07,10.00
2021,11,11,12,08,12.50
2021,11,11,12,09,9.70
2021,11,11,12,10,8.90
2021,11,11,12,11,6.80
2021,11,11,12,12,2.90
2021,11,11,12,13,5.10
2021,11,11,12,14,7.40
2021,11,11,12,15,9.60
2021,11,11,12,16,10.90
2021,11,11,12,17,11.60
2021,11,11,12,18,10.50
2021,11,11,12,19,10.00
2021,11,11,12,20,11.70
2021,11,11,12,21,9.30
2021,11,11,12,22,8.60
2021,11,11,12,23,12.00
2021,11,11,12,24,9.80
2021,11,11,12,25,7.40
2021,11,11,12,26,8.10
2021,11,11,12,27,7.80
2021,11,11,12,28,8.70
2021,11,11,12,29,4.70
2021,11,11,12,30,6.60
2021,11,11,12,31,6.80
2021,11,11,12,32,9.80
2021,11,11,12,33,13.00
2021,11,11,12,34,11.20
2021,11,11,12,35,12.10
2021,11,11,12,36,7.80
2021,11,11,12,37,6.20
2021,11,11,12,38,12.10
2021,11,11,12,39,8.60
2021,11,11,12,40,10.70
2021,11,11,12,41,8.50
2021,11,11,12,42,6.80
2021,11,11,12,43,8.50
2021,11,11,12,44,10.00
2021,11,11,12,45,10.90
2021,11,11,12,46,9.10
2021,11,11,12,47,8.60
2021,11,11,12,48,11.20
2021,11,11,12,49,11.10
2021,11,11,12,50,7.70
2021,11,11,12,51,9.50
2021,11,11,12,52,11.00
2021,11,11,12,53,10.70
2021,11,11,12,54,8.90
2021,11,11,12,55,6.20
2021,11,11,12,56,9.40
2021,11,11,12,57,8.90
2021,11,11,12,58,9.60
2021,11,11,12,59,10.50
2021,11,11,13,00,12.50
2021,11,11,13,01,11.30
2021,11,11,13,02,8.60
2021,11,11,13,03,7.20
2021,11,11,13,04,8.30
2021,11,11,13,05,7.60
2021,11,11,13,06,6.60
2021,11,11,13,07,9.10
2021,11,11,13,08,10.00
2021,11,11,13,09,8.60
2021,11,11,13,10,8.70
2021,11,11,13,11,8.20
2021,11,11,13,12,9.20
2021,11,11,13,13,7.60
2021,11,11,13,14,10.30
2021,11,11,13,15,9.30
2021,11,11,13,16,8.20
2021,11,11,13,17,9.80
2021,11,11,13,18,8.10
2021,11,11,13,19,8.60
2021,11,11,13,20,8.80
2021,11,11,13,21,11.50
2021,11,11,13,22,11.80
2021,11,11,13,23,8.30
2021,11,11,13,24,6.30
2021,11,11,13,25,7.30
2021,11,11,13,26,7.90
2021,11,11,13,27,8.60
2021,11,11,13,28,6.50
2021,11,11,13,29,7.90
2021,11,11,13,30,7.40
2021,11,11,13,31,8.90
2021,11,11,13,32,10.20
2021,11,11,13,33,8.70
2021,11,11,13,34,8.10
2021,11,11,13,35,9.00
2021,11,11,13,36,8.50
2021,11,11,13,37,5.20
2021,11,11,13,38,5.70
2021,11,11,13,39,8.70
2021,11,11,13,40,7.50
2021,11,11,13,41,5.10
2021,11,11,13,42,5.20
2021,11,11,13,43,4.20
2021,11,11,13,44,7.00
2021,11,11,13,45,5.60
2021,11,11,13,46,8.20
2021,11,11,13,47,7.90
2021,11,11,13,48,7.50
2021,11,11,13,49,8.40
2021,11,11,13,50,8.30
2021,11,11,13,51,9.10
2021,11,11,13,52,9.40
2021,11,11,13,53,9.00
2021,11,11,13,54,7.80
2021,11,11,13,55,5.90
2021,11,11,13,56,5.90
2021,11,11,13,57,8.30
2021,11,11,13,58,8.30
2021,11,11,13,59,8.90
2021,11,11,14,00,8.50
2021,11,11,14,01,6.10
2021,11,11,14,02,7.40
2021,11,11,14,03,7.50
2021,11,11,14,04,5.60
2021,11,11,14,05,4.90
2021,11,11,14,06,8.70
2021,11,11,14,07,8.70
2021,11,11,14,08,7.90
2021,11,11,14,09,7.10
2021,11,11,14,10,7.80
2021,11,11,14,11,7.40
2021,11,11,14,12,7.70
2021,11,11,14,13,8.60
2021,11,11,14,14,5.80
2021,11,11,14,15,7.90
2021,11,11,14,16,7.30
2021,11,11,14,17,6.90
2021,11,11,14,18,5.30
2021,11,11,14,19,6.40
2021,11,11,14,20,10.50
2021,11,11,14,21,8.80
2021,11,11,14,22,7.20
2021,11,11,14,23,7.70
2021,11,11,14,24,7.90
2021,11,11,14,25,8.70
2021,11,11,14,26,7.30
2021,11,11,14,27,11.10
2021,11,11,14,28,7.40
2021,11,11,14,29,8.40
2021,11,11,14,30,8.60
2021,11,11,14,31,9.30
2021,11,11,14,32,8.80
2021,11,11,14,33,8.60
2021,11,11,14,34,5.90
2021,11,11,14,35,5.00
2021,11,11,14,36,7.70
2021,11,11,14,37,9.30
2021,11,11,14,38,8.40
2021,11,11,14,39,8.50
2021,11,11,14,40,6.50
2021,11,11,14,41,8.00
2021,11,11,14,42,4.90
2021,11,11,14,43,1.10
2021,11,11,14,44,9.80
2021,11,11,14,45,8.60
2021,11,11,14,46,10.10
2021,11,11,14,47,11.80
2021,11,11,14,48,11.40
2021,11,11,14,49,9.00
2021,11,11,14,50,9.90
2021,11,11,14,51,10.70
2021,11,11,14,52,10.10
2021,11,11,14,53,9.90
2021,11,11,14,54,10.40
2021,11,11,14,55,11.80
2021,11,11,14,56,12.40
2021,11,11,14,57,13.90
2021,11,11,14,58,10.60
2021,11,11,14,59,14.30
2021,11,11,15,00,12.90
2021,11,11,15,01,14.90
2021,11,11,15,02,15.10
2021,11,11,15,03,13.40
2021,11,11,15,04,13.20
2021,11,11,15,05,14.40
2021,11,11,15,06,14.50
2021,11,11,15,07,16.00
2021,11,11,15,08,12.40
2021,11,11,15,09,11.60
2021,11,11,15,10,11.90
2021,11,11,15,11,9.00
2021,11,11,15,12,11.10
2021,11,11,15,13,8.50
2021,11,11,15,14,10.00
2021,11,11,15,15,10.60
2021,11,11,15,16,10.50
2021,11,11,15,17,9.40
2021,11,11,15,18,8.20
2021,11,11,15,19,10.10
2021,11,11,15,20,11.50
2021,11,11,15,21,11.00
2021,11,11,15,22,10.30
2021,11,11,15,23,10.70
2021,11,11,15,24,11.80
2021,11,11,15,25,8.70
2021,11,11,15,26,10.00
2021,11,11,15,27,8.40
2021,11,11,15,28,8.40
2021,11,11,15,29,8.20
2021,11,11,15,30,8.50
2021,11,11,15,31,9.70
2021,11,11,15,32,8.90
2021,11,11,15,33,7.20
2021,11,11,15,34,10.30
2021,11,11,15,35,8.80
2021,11,11,15,36,7.90
2021,11,11,15,37,9.40
2021,11,11,15,38,7.50
2021,11,11,15,39,9.20
2021,11,11,15,40,7.10
2021,11,11,15,41,6.90
2021,11,11,15,42,9.30
2021,11,11,15,43,8.10
2021,11,11,15,44,5.90
2021,11,11,15,45,6.90
2021,11,11,15,46,9.00
2021,11,11,15,47,8.30
2021,11,11,15,48,12.60
2021,11,11,15,49,11.80
2021,11,11,15,50,8.10
2021,11,11,15,51,7.70
2021,11,11,15,52,8.50
2021,11,11,15,53,8.40
2021,11,11,15,54,5.50
2021,11,11,15,55,4.80
2021,11,11,15,56,9.90
2021,11,11,15,57,9.70
2021,11,11,15,58,9.40
2021,11,11,15,59,8.80
2021,11,11,16,00,7.80
2021,11,11,16,01,6.90
2021,11,11,16,02,6.80
2021,11,11,16,03,6.60
2021,11,11,16,04,7.20
2021,11,11,16,05,9.20
2021,11,11,16,06,9.00
2021,11,11,16,07,9.00
2021,11,11,16,08,7.50
2021,11,11,16,09,6.10
2021,11,11,16,10,6.40
2021,11,11,16,11,6.40
2021,11,11,16,12,6.40
2021,11,11,16,13,6.50
2021,11,11,16,14,5.50
2021,11,11,16,15,7.20
2021,11,11,16,16,8.60
2021,11,11,16,17,7.80
2021,11,11,16,18,4.20
2021,11,11,16,19,0.20
2021,11,11,16,20,2.00
2021,11,11,16,21,6.10
2021,11,11,16,22,8.30
2021,11,11,16,23,3.90
2021,11,11,16,24,3.00
2021,11,11,16,25,6.30
2021,11,11,16,26,7.40
2021,11,11,16,27,9.70
2021,11,11,16,28,9.80
2021,11,11,16,29,8.00
2021,11,11,16,30,6.30
2021,11,11,16,31,7.70
2021,11,11,16,32,1.50
2021,11,11,16,33,1.20
2021,11,11,16,34,7.10
2021,11,11,16,35,8.20
2021,11,11,16,36,9.80
2021,11,11,16,37,11.40
2021,11,11,16,38,14.00
2021,11,11,16,39,13.40
2021,11,11,16,40,12.50
2021,11,11,16,41,14.10
2021,11,11,16,42,12.60
2021,11,11,16,43,11.80
2021,11,11,16,44,10.30
2021,11,11,16,45,8.90
2021,11,11,16,46,7.30
2021,11,11,16,47,7.70
2021,11,11,16,48,8.70
2021,11,11,16,49,9.50
2021,11,11,16,50,7.90
2021,11,11,16,51,7.00
2021,11,11,16,52,6.20
2021,11,11,16,53,6.70
2021,11,11,16,54,8.90
2021,11,11,16,55,7.10
2021,11,11,16,56,3.80
2021,11,11,16,57,1.20
2021,11,11,16,58,0.00
2021,11,11,16,59,0.10
2021,11,11,17,00,0.30
2021,11,11,17,01,2.80
2021,11,11,17,02,2.20
2021,11,11,17,03,1.20
2021,11,11,17,04,8.60
2021,11,11,17,05,15.80
2021,11,11,17,06,20.70
2021,11,11,17,07,7.60
2021,11,11,17,08,8.10
2021,11,11,17,09,6.00
2021,11,11,17,10,3.30
2021,11,11,17,11,6.90
2021,11,11,17,12,4.30
2021,11,11,17,13,0.10
2021,11,11,17,14,0.20
2021,11,11,17,15,0.10
2021,11,11,17,16,3.00
2021,11,11,17,17,7.60
2021,11,11,17,18,6.00
2021,11,11,17,19,6.90
2021,11,11,17,20,3.40
2021,11,11,17,21,3.30
2021,11,11,17,22,3.80
2021,11,11,17,23,0.90
2021,11,11,17,24,0.00
2021,11,11,17,25,0.70
2021,11,11,17,26,0.40
2021,11,11,17,27,1.60
2021,11,11,17,28,1.40
2021,11,11,17,29,0.70
2021,11,11,17,30,0.00
2021,11,11,17,31,0.00
2021,11,11,17,32,0.10
2021,11,11,17,33,0.00
2021,11,11,17,34,0.20
2021,11,11,17,35,0.10
2021,11,11,17,36,0.00
2021,11,11,17,37,0.00
2021,11,11,17,38,0.10
2021,11,11,17,39,0.00
2021,11,11,17,40,0.20
2021,11,11,17,41,3.30
2021,11,11,17,42,7.80
2021,11,11,17,43,7.60
2021,11,11,17,44,3.10
2021,11,11,17,45,2.10
2021,11,11,17,46,1.70
2021,11,11,17,47,0.90
2021,11,11,17,48,0.10
2021,11,11,17,49,0.90
2021,11,11,17,50,5.30
2021,11,11,17,51,3.10
2021,11,11,17,52,2.80
2021,11,11,17,53,2.70
2021,11,11,17,54,0.40
2021,11,11,17,55,0.00
2021,11,11,17,56,0.00
2021,11,11,17,57,0.00
2021,11,11,17,58,0.30
2021,11,11,17,59,0.10